Coatesville, PA

1:22 AM EDT on October 22, 2017 (GMT -0400)
Chester County Carlson

Weather History for KMQS - November, 2013

Change the Weather History Date:

Monday, November 11, 2013

  Actual Average (KILG) Record (KILG)
Temperature  
Mean Temperature 44 °F -  
Max Temperature 53 °F 55 °F 74 °F (1985)
Min Temperature 35 °F 39 °F 22 °F (1961)
Degree Days  
Heating Degree Days 21    
Moisture  
Dew Point 31 °F    
Average Humidity 58    
Maximum Humidity 75    
Minimum Humidity 41    
Precipitation  
Precipitation 0.00 in - - ()
Sea Level Pressure  
Sea Level Pressure 30.15 in    
Wind  
Wind Speed 8 mph (West)    
Max Wind Speed 14 mph    
Max Gust Speed 18 mph    
Visibility 10 miles    
Events      
Averages and records for this station are not official NWS values.
T = Trace of Precipitation, MM = Missing Value Source: NWS Daily Summary

Daily Weather History Graph

Daily Weather History Graph

Search for Another Location

Airport or City:

Trip Planner

Search our weather history database for the weather conditions in past years. The results will help you decide how hot, cold, wet, or windy it might be!

Date:

Astronomy

Nov. 11, 2013 Rise Set
Actual Time 6:44 AM EST 4:50 PM EST
Civil Twilight 6:15 AM EST 5:19 PM EST
Nautical Twilight 5:42 AM EST 5:51 PM EST
Astronomical Twilight 5:11 AM EST 6:23 PM EST
Moon 1:29 PM EST (11/11) 12:27 AM EST (11/11)
Length of Visible Light 11h 03m
Length of Day
10h 06m
Waxing Gibbous, 66% of the Moon is Illuminated
Nov 11
Waxing Gibbous
Nov 17
Full
Nov 25
Last Quarter
Dec 2
New
Dec 9
First Quarter

Hourly Weather History & Observations

Time (EST) Temp. Windchill Dew Point Humidity Pressure Visibility Wind Dir Wind Speed Gust Speed Precip Events Conditions
12:15 AM 42.8 °F 36.2 °F 30.2 °F 61% 30.16 in 10.0 mi WNW 12.7 mph - N/A   Partly Cloudy
12:35 AM 42.8 °F 37.5 °F 30.2 °F 61% 30.17 in 10.0 mi WNW 9.2 mph - N/A   Partly Cloudy
12:55 AM 39.2 °F 33.6 °F 30.2 °F 70% 30.17 in 10.0 mi WNW 8.1 mph - N/A   Clear
1:15 AM 37.4 °F 32.1 °F 30.2 °F 75% 30.18 in 10.0 mi NW 6.9 mph - N/A   Clear
1:35 AM 41.0 °F 35.8 °F 30.2 °F 65% 30.19 in 10.0 mi NW 8.1 mph - N/A   Mostly Cloudy
1:55 AM 41.0 °F 34.7 °F 30.2 °F 65% 30.19 in 10.0 mi NW 10.4 mph - N/A   Scattered Clouds
2:15 AM 41.0 °F 35.8 °F 30.2 °F 65% 30.20 in 10.0 mi NW 8.1 mph - N/A   Clear
2:35 AM 39.2 °F 34.2 °F 30.2 °F 70% 30.21 in 10.0 mi WNW 6.9 mph - N/A   Clear
2:55 AM 39.2 °F 33.6 °F 30.2 °F 70% 30.21 in 10.0 mi WNW 8.1 mph - N/A   Partly Cloudy
3:15 AM 39.2 °F 32.5 °F 30.2 °F 70% 30.21 in 10.0 mi NW 10.4 mph - N/A   Partly Cloudy
3:35 AM 41.0 °F 36.4 °F 30.2 °F 65% 30.21 in 10.0 mi NW 6.9 mph - N/A   Partly Cloudy
3:55 AM 41.0 °F 36.4 °F 28.4 °F 61% 30.21 in 10.0 mi NW 6.9 mph - N/A   Clear
4:15 AM 39.2 °F 34.2 °F 28.4 °F 65% 30.21 in 10.0 mi NW 6.9 mph - N/A   Clear
4:35 AM 39.2 °F 35.0 °F 28.4 °F 65% 30.22 in 10.0 mi NW 5.8 mph - N/A   Clear
4:55 AM 39.2 °F 35.9 °F 28.4 °F 65% 30.22 in 10.0 mi NNW 4.6 mph - N/A   Clear
5:15 AM 39.2 °F 34.2 °F 28.4 °F 65% 30.22 in 10.0 mi NW 6.9 mph - N/A   Clear
5:35 AM 39.2 °F 33.0 °F 28.4 °F 65% 30.22 in 10.0 mi NW 9.2 mph - N/A   Clear
5:55 AM 37.4 °F 32.1 °F 28.4 °F 70% 30.23 in 10.0 mi NW 6.9 mph - N/A   Clear
6:15 AM 37.4 °F 32.8 °F 28.4 °F 70% 30.24 in 10.0 mi NW 5.8 mph - N/A   Clear
6:35 AM 37.4 °F 32.8 °F 28.4 °F 70% 30.23 in 10.0 mi NW 5.8 mph - N/A   Clear
6:55 AM 35.6 °F 29.9 °F 28.4 °F 75% 30.24 in 10.0 mi NW 6.9 mph - N/A   Clear
7:15 AM 37.4 °F 34.9 °F 28.4 °F 70% 30.25 in 10.0 mi NW 3.5 mph - N/A   Clear
7:35 AM 39.2 °F 35.9 °F 28.4 °F 65% 30.26 in 10.0 mi NW 4.6 mph - N/A   Clear
7:55 AM 41.0 °F 36.4 °F 30.2 °F 65% 30.25 in 10.0 mi WNW 6.9 mph - N/A   Clear
8:15 AM 42.8 °F 41.1 °F 30.2 °F 61% 30.26 in 10.0 mi West 3.5 mph - N/A   Clear
8:35 AM 44.6 °F 40.7 °F 30.2 °F 57% 30.26 in 10.0 mi NW 6.9 mph - N/A   Clear
8:55 AM 44.6 °F 39.2 °F 30.2 °F 57% 30.26 in 10.0 mi WNW 10.4 mph - N/A   Clear
9:15 AM 46.4 °F 42.9 °F 32.0 °F 57% 30.25 in 10.0 mi West 6.9 mph - N/A   Clear
9:35 AM 46.4 °F 40.4 °F 32.0 °F 57% 30.26 in 10.0 mi WNW 13.8 mph 18.4 mph N/A   Clear
9:55 AM 46.4 °F 42.9 °F 32.0 °F 57% 30.26 in 10.0 mi WNW 6.9 mph - N/A   Clear
10:15 AM 46.4 °F 41.9 °F 32.0 °F 57% 30.25 in 10.0 mi WNW 9.2 mph - N/A   Clear
10:35 AM 48.2 °F - 32.0 °F 54% 30.25 in 10.0 mi West 6.9 mph - N/A   Scattered Clouds
10:55 AM 48.2 °F - 32.0 °F 54% 30.24 in 10.0 mi West 5.8 mph - N/A   Partly Cloudy
11:15 AM 50.0 °F - 32.0 °F 50% 30.23 in 10.0 mi WNW 9.2 mph - N/A   Clear
11:35 AM 48.2 °F - 32.0 °F 54% 30.22 in 10.0 mi West 6.9 mph - N/A   Partly Cloudy
11:55 AM 48.2 °F - 32.0 °F 54% 30.21 in 10.0 mi WNW 9.2 mph - N/A   Mostly Cloudy
12:15 PM 50.0 °F - 32.0 °F 50% 30.20 in 10.0 mi West 6.9 mph - N/A   Mostly Cloudy
12:35 PM 50.0 °F - 32.0 °F 50% 30.19 in 10.0 mi WSW 4.6 mph - N/A   Mostly Cloudy
12:55 PM 50.0 °F - 32.0 °F 50% 30.18 in 10.0 mi SW 6.9 mph - N/A   Mostly Cloudy
1:15 PM 51.8 °F - 32.0 °F 47% 30.17 in 10.0 mi WSW 5.8 mph - N/A   Mostly Cloudy
1:35 PM 53.6 °F - 32.0 °F 44% 30.16 in 10.0 mi SSW 8.1 mph - N/A   Mostly Cloudy
1:55 PM 51.8 °F - 32.0 °F 47% 30.15 in 10.0 mi SSW 5.8 mph - N/A   Scattered Clouds
2:15 PM 51.8 °F - 32.0 °F 47% 30.13 in 10.0 mi SSW 6.9 mph - N/A   Clear
2:35 PM 53.6 °F - 30.2 °F 41% 30.12 in 10.0 mi SW 8.1 mph - N/A   Mostly Cloudy
2:55 PM 51.8 °F - 30.2 °F 44% 30.12 in 10.0 mi SW 6.9 mph - N/A   Mostly Cloudy
3:15 PM 53.6 °F - 30.2 °F 41% 30.11 in 10.0 mi SW 5.8 mph - N/A   Mostly Cloudy
3:35 PM 53.6 °F - 30.2 °F 41% 30.12 in 10.0 mi WSW 6.9 mph - N/A   Mostly Cloudy
3:55 PM 51.8 °F - 28.4 °F 41% 30.11 in 10.0 mi SW 6.9 mph - N/A   Scattered Clouds
4:15 PM 51.8 °F - 30.2 °F 44% 30.12 in 10.0 mi SSW 4.6 mph - N/A   Mostly Cloudy
4:35 PM 48.2 °F - 32.0 °F 54% 30.11 in 10.0 mi South 4.6 mph - N/A   Overcast
4:55 PM 48.2 °F - 32.0 °F 54% 30.11 in 10.0 mi SW 3.5 mph - N/A   Overcast
5:15 PM 48.2 °F - 32.0 °F 54% 30.11 in 10.0 mi South 4.6 mph - N/A   Overcast
5:35 PM 48.2 °F - 32.0 °F 54% 30.09 in 10.0 mi South 5.8 mph - N/A   Overcast
5:55 PM 48.2 °F - 32.0 °F 54% 30.09 in 10.0 mi SSW 3.5 mph - N/A   Overcast
6:15 PM 48.2 °F - 32.0 °F 54% 30.09 in 10.0 mi South 5.8 mph - N/A   Overcast
6:35 PM 48.2 °F - 33.8 °F 58% 30.08 in 10.0 mi South 4.6 mph - N/A   Overcast
6:55 PM 46.4 °F 43.5 °F 33.8 °F 62% 30.07 in 10.0 mi SSW 5.8 mph - N/A   Mostly Cloudy
7:15 PM 46.4 °F 42.9 °F 33.8 °F 62% 30.06 in 10.0 mi SSW 6.9 mph - N/A   Mostly Cloudy
7:35 PM 48.2 °F - 33.8 °F 58% 30.05 in 10.0 mi SW 5.8 mph - N/A   Mostly Cloudy
7:55 PM 48.2 °F - 33.8 °F 58% 30.04 in 10.0 mi SSW 8.1 mph - N/A   Mostly Cloudy
8:15 PM 48.2 °F - 33.8 °F 58% 30.05 in 10.0 mi SW 5.8 mph - N/A   Overcast
8:35 PM 48.2 °F - 33.8 °F 58% 30.04 in 10.0 mi SW 5.8 mph - N/A   Overcast
8:55 PM 48.2 °F - 33.8 °F 58% 30.04 in 10.0 mi SSW 6.9 mph - N/A   Overcast
9:15 PM 48.2 °F - 33.8 °F 58% 30.03 in 10.0 mi SSW 6.9 mph - N/A   Mostly Cloudy
9:35 PM 48.2 °F - 35.6 °F 62% 30.03 in 10.0 mi SW 5.8 mph - N/A   Overcast
9:55 PM 48.2 °F - 35.6 °F 62% 30.03 in 10.0 mi SW 5.8 mph - N/A   Overcast
10:15 PM 48.2 °F - 35.6 °F 62% 30.02 in 10.0 mi SSW 4.6 mph - N/A   Overcast
10:35 PM 48.2 °F - 35.6 °F 62% 30.02 in 10.0 mi SSW 5.8 mph - N/A   Mostly Cloudy
10:55 PM 48.2 °F - 35.6 °F 62% 30.01 in 10.0 mi SW 6.9 mph - N/A   Overcast
11:15 PM 48.2 °F - 35.6 °F 62% 30.01 in 10.0 mi SW 9.2 mph - N/A   Overcast
11:35 PM 48.2 °F - 33.8 °F 58% 30.00 in 10.0 mi WSW 5.8 mph - N/A   Overcast
11:55 PM 48.2 °F - 33.8 °F 58% 30.00 in 10.0 mi WSW 4.6 mph - N/A   Overcast